Powrót do katalogu

CZ-6A DEB

AktywnySSO
NORAD 56627·DEBRIS·🇨🇳 China

Wystrzelony Nov 11, 2022 z Taiyuan Satellite Launch Center

Loading…

Następne Przeloty (najbliższe 24 godziny)

TLE

Starzejące sięSource: Space-Track

Epoka: Sep 10, 2026, 06:38 UTC

1 56627U 22151AFB 26253.27693556  .00001487  00000-0  70922-3 0  9991
2 56627  98.8253 265.3906 0037645  64.6536 295.8531 14.20412280183828

Śledź CZ-6A DEB w czasie rzeczywistym z AllMySat

Download on the App Store